[[{"header":{"parameterUnit":"m.s-1","parameterCategory":1,"la1":30.2991,"la2":30.254,"lo1":-89.0895,"lo2":-89.0444,"dy":0.0017,"dx":0.0017,"nx":28,"ny":28,"refTime":"2024-08-28T03:00:00:Z","depth":0,"parameterNumber":2,"parameterNumberName":"U-component_of_WINDS"},"data":[0,0,0,0,0,0,0,0,0,0,0,0,0,0,0,0,0,0,0,0,0,0,0,0,0,0,0,0,0,0,0,0,0,0,0,0,0,0,0,0,0,0,0,0,0,0,0,0,0,0,0,0,0,0,0,0,0,0,-1.4904,-1.4905,0,-1.4914,-1.4914,-1.4914,-1.4872,-1.487,-1.4869,-1.4868,-1.4878,-1.4879,-1.4881,0,0,0,0,0,0,0,0,0,0,0,0,0,-1.485,-1.4851,-1.4904,-1.4905,-1.4905,-1.4914,-1.4914,-1.4914,-1.4872,-1.487,-1.4869,-1.4867,-1.4877,-1.4879,-1.4881,0,0,0,0,0,0,0,0,0,0,0,0,0,-1.4868,-1.4852,-1.4904,-1.4885,-1.4883,-1.4914,-1.4914,-1.4914,-1.4872,-1.487,-1.4868,-1.4867,-1.4877,-1.4879,-1.4881,-1.4931,0,0,-1.4888,-1.4889,0,0,0,0,0,0,0,0,-1.4867,-1.487,-1.4887,-1.4886,-1.4884,-1.489,-1.4898,-1.492,-1.4873,-1.4876,-1.4868,-1.4866,-1.4883,-1.4885,-1.4891,-1.4932,-1.4932,-1.4888,-1.4889,-1.489,-1.4891,0,0,0,0,0,0,0,-1.4866,-1.4869,-1.4908,-1.4888,-1.4886,-1.4875,-1.4876,-1.4902,-1.489,-1.4876,-1.4873,-1.4874,-1.4882,-1.4889,-1.4891,-1.4932,-1.4888,-1.489,-1.4891,-1.4892,-1.5014,-1.5016,0,0,0,0,0,0,-1.4867,-1.4869,-1.4908,-1.4908,-1.4871,-1.4878,-1.4878,-1.489,-1.489,-1.4888,-1.4876,-1.4872,-1.4886,-1.4888,-1.4891,-1.4949,-1.489,-1.4892,-1.4893,-1.5012,-1.5015,-1.5017,0,0,0,0,0,0,-1.4866,-1.4871,-1.4907,-1.4888,-1.4891,-1.4881,-1.4894,-1.4891,-1.4897,-1.489,-1.4887,-1.4885,-1.4885,-1.4888,-1.4921,-1.4949,-1.4893,-1.4895,-1.501,-1.5013,-1.5016,-1.5066,0,0,0,0,0,0,-1.4865,-1.4871,-1.489,-1.4888,-1.4893,-1.4938,-1.4896,-1.4892,-1.4901,-1.4897,-1.4898,-1.4896,-1.4883,-1.4918,-1.4923,-1.4951,-1.4897,-1.5007,-1.5011,-1.5015,-1.5062,-1.5071,-1.5078,0,0,0,0,0,-1.4863,-1.4904,-1.4891,-1.4896,-1.4916,-1.494,-1.4942,-1.4927,-1.4904,-1.4923,-1.4917,-1.4896,-1.4945,-1.4922,-1.4928,-1.4956,-1.5006,-1.501,-1.5015,-1.5059,-1.5069,-1.5078,0,0,0,0,0,0,-1.491,-1.4904,-1.4889,-1.4931,-1.4936,-1.4933,-1.4956,-1.4938,-1.495,-1.4946,-1.4926,-1.4926,-1.4963,-1.4963,-1.4938,-1.5004,-1.4971,-1.4977,-1.5003,-1.5013,-1.5021,-1.502,-1.4898,0,0,0,0,0,-1.4925,-1.4944,-1.4938,-1.4976,-1.4979,-1.4967,-1.4977,-1.4964,-1.4969,-1.4971,-1.4968,-1.4974,-1.499,-1.5001,-1.5016,-1.5062,-1.5061,-1.5084,-1.5092,-1.5098,-1.5104,-1.5127,-1.5137,-1.5031,-1.5031,-1.5031,0,0,-1.4957,-1.4956,-1.4969,-1.4985,-1.4988,-1.5008,-1.4969,-1.4993,-1.5008,-1.4974,-1.5006,-1.5004,-1.5009,-1.5048,-1.5066,-1.5049,-1.5132,-1.5104,-1.5109,-1.5111,-1.5133,-1.5143,-1.5152,-1.5034,-1.5034,-1.5033,0,0,-1.5025,-1.5026,-1.5057,-1.506,-1.5064,-1.5056,-1.5064,-1.5062,-1.506,-1.5091,-1.5066,-1.5084,-1.5113,-1.5117,-1.5123,-1.5191,-1.5172,-1.5197,-1.5238,-1.5261,-1.5269,-1.5277,-1.5301,-1.531,-1.5202,-1.5202,-1.5202,0,-1.5064,-1.5094,-1.5076,-1.5101,-1.5108,-1.5078,-1.511,-1.5113,-1.5122,-1.5128,-1.5109,-1.5144,-1.5146,-1.5185,-1.5202,-1.5208,-1.5216,-1.5197,-1.527,-1.5277,-1.5283,-1.5306,-1.5315,-1.5205,-1.5205,-1.5204,-1.5204,0,-1.5141,-1.5162,-1.5187,-1.5195,-1.5206,-1.5234,-1.522,-1.5232,-1.5219,-1.5212,-1.5244,-1.5244,-1.5258,-1.5267,-1.5254,-1.5305,-1.5294,-1.5273,-1.524,-1.5297,-1.5318,-1.5326,-1.5209,-1.5208,-1.5207,-1.5206,0,0,-1.524,-1.5237,-1.5247,-1.525,-1.5252,-1.5268,-1.5294,-1.5307,-1.5318,-1.5325,-1.5347,-1.5371,-1.5351,-1.5358,-1.5345,-1.5366,-1.542,-1.5342,-1.5341,-1.5356,-1.5475,-1.5491,-1.5501,-1.5406,-1.5408,-1.5409,-1.5474,0,-1.5306,-1.5351,-1.5335,-1.5381,-1.54,-1.5372,-1.5394,-1.5398,-1.5393,-1.5408,-1.5402,-1.5419,-1.5392,-1.5396,-1.5414,-1.5409,-1.5443,-1.5404,-1.5426,-1.5427,-1.5426,-1.5512,-1.553,-1.5591,-1.5483,-1.5484,-1.5485,0,-1.539,-1.54,-1.5447,-1.5445,-1.5452,-1.5473,-1.5484,-1.5499,-1.5502,-1.5496,-1.5503,-1.5486,-1.5511,-1.5478,-1.5513,-1.5487,-1.5494,-1.5493,-1.5495,-1.5497,-1.546,-1.5516,-1.5611,-1.562,-1.5498,-1.5497,-1.5496,0,-1.5457,-1.5482,-1.5513,-1.5517,-1.5515,-1.553,-1.553,-1.5532,-1.554,-1.5549,-1.5555,-1.5567,-1.5574,-1.5584,-1.557,-1.5547,-1.5606,-1.5572,-1.5603,-1.5603,-1.5617,-1.5616,-1.5713,-1.5622,-1.5622,-1.5622,-1.5621,0,-1.5533,-1.5564,-1.5543,-1.5563,-1.5595,-1.5577,-1.561,-1.5606,-1.5608,-1.5626,-1.5602,-1.5619,-1.56,-1.5616,-1.5605,-1.5635,-1.5639,-1.5635,-1.5632,-1.5637,-1.5638,-1.5642,-1.5638,-1.5624,-1.5624,-1.5623,-1.5623,0,-1.5614,-1.5602,-1.5634,-1.5629,-1.5629,-1.5653,-1.5649,-1.5666,-1.5659,-1.5682,-1.5686,-1.5675,-1.5692,-1.5679,-1.5696,-1.5689,-1.5729,-1.5719,-1.5728,-1.5725,-1.5756,-1.5754,-1.586,-1.5873,-1.5773,-1.5774,-1.5775,0,-1.5664,-1.5686,-1.5683,-1.5693,-1.5695,-1.5712,-1.572,-1.5702,-1.5712,-1.5717,-1.5734,-1.5748,-1.576,-1.5788,-1.5781,-1.5794,-1.5785,-1.5821,-1.5787,-1.5791,-1.5785,-1.5784,-1.5786,-1.5829,-1.583,-1.5831,-1.5832,0,-1.5753,-1.5745,-1.5758,-1.5769,-1.5779,-1.5787,-1.5793,-1.5803,-1.5784,-1.5797,-1.5814,-1.5822,-1.5839,-1.5854,-1.5864,-1.5864,-1.5845,-1.5842,-1.585,-1.5856,-1.586,-1.5858,-1.5747,-1.584,-1.5839,-1.5839,-1.5838,-1.5838,-1.5819,-1.5837,-1.5838,-1.5853,-1.5855,-1.5861,-1.5877,-1.5871,-1.5885,-1.5897,-1.5885,-1.5906,-1.5907,-1.5919,-1.5921,-1.5937,-1.5922,-1.5933,-1.5936,-1.5939,-1.5943,-1.5857,-1.5938,-1.5938,-1.5938,-1.5938,-1.5937,0,-1.5907,-1.5905,-1.5919,-1.5928,-1.594,-1.592,-1.5925,-1.5936,-1.5954,-1.5957,-1.5968,-1.5987,-1.6001,-1.5995,-1.6008,-1.6021,-1.6013,-1.6025,-1.6024,-1.6024,-1.5956,-1.5948,-1.6032,-1.6032,-1.6032,-1.6032,-1.6032,-1.6032,-1.5954,-1.5984,-1.5976,-1.6006,-1.6005,-1.6024,-1.6029,-1.6034,-1.6036,-1.6058,-1.6069,-1.6065,-1.6064,-1.6076,-1.6088,-1.6086,-1.6092,-1.6107,-1.6102,-1.6039,-1.6029,-1.602,-1.6013,-1.6109,-1.6109,-1.6169,-1.617,-1.617]},{"header":{"parameterUnit":"m.s-1","parameterCategory":1,"la1":30.2991,"la2":30.254,"lo1":-89.0895,"lo2":-89.0444,"dy":0.0017,"dx":0.0017,"nx":28,"ny":28,"refTime":"2024-08-28T03:00:00:Z","depth":0,"parameterNumber":3,"parameterNumberName":"V-component_of_WINDS"},"data":[0,0,0,0,0,0,0,0,0,0,0,0,0,0,0,0,0,0,0,0,0,0,0,0,0,0,0,0,0,0,0,0,0,0,0,0,0,0,0,0,0,0,0,0,0,0,0,0,0,0,0,0,0,0,0,0,0,0,1.2155,1.2155,0,1.2173,1.2173,1.2173,1.2175,1.2175,1.2174,1.2174,1.2191,1.2191,1.2192,0,0,0,0,0,0,0,0,0,0,0,0,0,1.2121,1.2121,1.2155,1.2155,1.2155,1.2173,1.2173,1.2173,1.2175,1.2175,1.2174,1.2174,1.2191,1.2191,1.2192,0,0,0,0,0,0,0,0,0,0,0,0,0,1.2137,1.2121,1.2155,1.2158,1.2159,1.2173,1.2173,1.2173,1.2175,1.2175,1.2174,1.2174,1.219,1.2191,1.2192,1.2203,0,0,1.2195,1.2195,0,0,0,0,0,0,0,0,1.2136,1.2138,1.2158,1.2158,1.2159,1.2171,1.2167,1.2183,1.2175,1.2169,1.2174,1.2174,1.2184,1.2186,1.219,1.2204,1.2205,1.2195,1.2195,1.2196,1.2196,0,0,0,0,0,0,0,1.2135,1.2137,1.2162,1.2158,1.2159,1.2158,1.216,1.217,1.2178,1.2169,1.2169,1.2172,1.2185,1.2189,1.219,1.2205,1.2195,1.2196,1.2196,1.2197,1.2229,1.2229,0,0,0,0,0,0,1.2133,1.2136,1.2161,1.2162,1.2146,1.2159,1.2161,1.2167,1.2178,1.2179,1.2172,1.2172,1.2187,1.2189,1.2191,1.2204,1.2196,1.2197,1.2197,1.2228,1.2229,1.2229,0,0,0,0,0,0,1.2132,1.2135,1.2161,1.2149,1.2153,1.216,1.2167,1.2168,1.2172,1.218,1.2181,1.2175,1.2187,1.2189,1.22,1.2205,1.2197,1.2198,1.2228,1.2229,1.2229,1.2231,0,0,0,0,0,0,1.2131,1.2135,1.214,1.2149,1.2153,1.217,1.2167,1.2169,1.2174,1.2174,1.2183,1.2184,1.2187,1.2199,1.2201,1.2206,1.2199,1.2228,1.2228,1.2229,1.223,1.2231,1.2232,0,0,0,0,0,1.213,1.2139,1.214,1.2143,1.2159,1.217,1.2173,1.2177,1.2174,1.2179,1.2184,1.2184,1.2204,1.22,1.2202,1.2207,1.2227,1.2228,1.2229,1.223,1.2231,1.2232,0,0,0,0,0,0,1.2129,1.214,1.2141,1.2154,1.2161,1.2171,1.2176,1.2178,1.2185,1.2185,1.2189,1.2191,1.2201,1.2206,1.2201,1.2219,1.2215,1.2217,1.2215,1.2217,1.2217,1.2216,1.2199,0,0,0,0,0,1.213,1.2139,1.2148,1.2159,1.2162,1.2169,1.2174,1.2176,1.2184,1.2187,1.2192,1.2199,1.2207,1.2212,1.222,1.2231,1.2233,1.2236,1.2237,1.2237,1.2238,1.2244,1.2246,1.2231,1.2231,1.2231,0,0,1.2133,1.214,1.2145,1.2159,1.2165,1.2173,1.2171,1.218,1.2186,1.2188,1.2199,1.2203,1.2211,1.2222,1.2227,1.2226,1.2243,1.2238,1.2239,1.2239,1.2245,1.2247,1.2248,1.2232,1.2232,1.2232,0,0,1.2142,1.2148,1.2158,1.2164,1.2173,1.2178,1.218,1.2189,1.2192,1.2203,1.2204,1.2212,1.2225,1.2231,1.2235,1.2246,1.2247,1.2249,1.2253,1.2259,1.226,1.2261,1.2265,1.2266,1.225,1.225,1.225,0,1.2144,1.2157,1.2162,1.2171,1.2177,1.2179,1.2188,1.2194,1.2205,1.2208,1.2207,1.2224,1.2229,1.2242,1.2245,1.2248,1.225,1.2248,1.226,1.2261,1.2262,1.2265,1.2267,1.225,1.225,1.225,1.225,0,1.2159,1.2168,1.2174,1.2185,1.2192,1.2201,1.2207,1.2212,1.2214,1.2219,1.2229,1.2236,1.2245,1.2248,1.225,1.2261,1.226,1.2259,1.2256,1.2263,1.2267,1.2268,1.225,1.225,1.225,1.225,0,0,1.2167,1.2181,1.2183,1.2189,1.2199,1.2206,1.2215,1.2225,1.2229,1.2237,1.2244,1.2256,1.2255,1.226,1.2263,1.2268,1.2276,1.2266,1.2267,1.2268,1.2288,1.2288,1.229,1.2277,1.2277,1.2277,1.2287,0,1.2177,1.2194,1.2198,1.2212,1.2221,1.2223,1.2231,1.2238,1.2242,1.225,1.2254,1.2262,1.2261,1.2264,1.2269,1.2274,1.228,1.2273,1.2283,1.2283,1.228,1.2292,1.2292,1.2301,1.2289,1.2289,1.2289,0,1.2191,1.2199,1.2214,1.2224,1.2227,1.2234,1.2243,1.225,1.2258,1.2261,1.2267,1.2269,1.2278,1.2275,1.2287,1.2282,1.2286,1.2289,1.2289,1.229,1.2286,1.2292,1.2304,1.2306,1.2291,1.2291,1.2291,0,1.2195,1.221,1.2221,1.2225,1.2237,1.2242,1.2246,1.2254,1.226,1.2267,1.2271,1.2279,1.2284,1.229,1.2294,1.2291,1.2306,1.2303,1.2308,1.2308,1.231,1.231,1.2323,1.2314,1.2313,1.2313,1.2313,0,1.2205,1.2214,1.2223,1.223,1.2239,1.2245,1.2254,1.2259,1.2266,1.2273,1.2276,1.2282,1.2288,1.2295,1.2298,1.2307,1.2309,1.2311,1.2312,1.2311,1.2311,1.2313,1.2313,1.2314,1.2314,1.2314,1.2314,0,1.2212,1.2218,1.223,1.224,1.2243,1.225,1.2258,1.2264,1.2269,1.2278,1.228,1.2287,1.2296,1.2301,1.2311,1.2313,1.2324,1.2324,1.2321,1.2321,1.2326,1.2325,1.2341,1.2343,1.2332,1.2332,1.2332,0,1.2218,1.2225,1.2236,1.2241,1.2246,1.2255,1.226,1.2266,1.2272,1.2281,1.2286,1.2295,1.2302,1.2316,1.2321,1.2329,1.233,1.2335,1.2331,1.233,1.233,1.2329,1.2329,1.2335,1.2335,1.2335,1.2335,0,1.2228,1.2231,1.2239,1.2249,1.2256,1.2263,1.2271,1.2275,1.2281,1.2287,1.2297,1.2302,1.2313,1.2322,1.2331,1.2335,1.2336,1.2337,1.2338,1.2337,1.2335,1.2336,1.2322,1.2336,1.2336,1.2336,1.2336,1.2336,1.2234,1.224,1.2249,1.2258,1.2265,1.2272,1.2278,1.2284,1.2292,1.2302,1.2304,1.2314,1.2321,1.2333,1.2337,1.2344,1.2344,1.2346,1.2346,1.2347,1.2347,1.2334,1.2346,1.2346,1.2346,1.2346,1.2346,0,1.2244,1.225,1.2258,1.2269,1.2276,1.2278,1.2286,1.2292,1.23,1.2307,1.2315,1.2325,1.2333,1.234,1.2348,1.2353,1.2353,1.2355,1.2354,1.2355,1.2347,1.2345,1.2354,1.2354,1.2354,1.2354,1.2354,1.2354,1.225,1.2261,1.2265,1.2278,1.2284,1.2294,1.2298,1.2305,1.2311,1.2322,1.2329,1.2334,1.234,1.2349,1.2357,1.2359,1.2361,1.2362,1.2364,1.2356,1.2356,1.2355,1.2353,1.2363,1.2363,1.2371,1.2371,1.2371]}]]